| time (UTC) | temp F | wind direction | speed knots | gust knots | rain 1hr in | rain 24hr in | rain mn in | humidity % | barometer mb |
| 20260507101020 | 74 | 123 | 7.8 | 13.0 | 0.00 | 0.00 | 0.00 | 36 | 1013.4 |
| 20260507100019 | 74 | 126 | 8.7 | 16.5 | 0.00 | 0.00 | 0.00 | 36 | 1013.5 |
| 20260507095020 | 74 | 114 | 7.8 | 13.0 | 0.00 | 0.00 | 0.00 | 36 | 1013.4 |
| 20260507094020 | 74 | 145 | 8.7 | 13.0 | 0.00 | 0.00 | 0.00 | 35 | 1013.5 |
| 20260507093019 | 73 | 127 | 7.8 | 14.8 | 0.00 | 0.00 | 0.00 | 36 | 1013.6 |
| 20260507092021 | 73 | 124 | 7.0 | 14.8 | 0.00 | 0.00 | 0.00 | 36 | 1013.7 |
| 20260507091020 | 73 | 123 | 8.7 | 15.6 | 0.00 | 0.00 | 0.00 | 35 | 1013.6 |
| 20260507090019 | 72 | 125 | 9.6 | 15.6 | 0.00 | 0.00 | 0.00 | 36 | 1013.6 |
| 20260507085019 | 72 | 124 | 8.7 | 15.6 | 0.00 | 0.00 | 0.00 | 36 | 1013.6 |
| 20260507084018 | 72 | 133 | 7.8 | 16.5 | 0.00 | 0.00 | 0.00 | 36 | 1013.6 |
| 20260507083018 | 72 | 131 | 8.7 | 17.4 | 0.00 | 0.00 | 0.00 | 36 | 1013.6 |
| 20260507082019 | 72 | 126 | 7.8 | 13.9 | 0.00 | 0.00 | 0.00 | 37 | 1013.6 |
| 20260507081019 | 71 | 120 | 7.0 | 14.8 | 0.00 | 0.00 | 0.00 | 38 | 1013.6 |
| 20260507080020 | 70 | 126 | 7.8 | 15.6 | 0.00 | 0.00 | 0.00 | 38 | 1013.6 |
| 20260507075020 | 70 | 126 | 7.8 | 14.8 | 0.00 | 0.00 | 0.00 | 39 | 1013.8 |
| 20260507074019 | 70 | 126 | 7.0 | 14.8 | 0.00 | 0.00 | 0.00 | 39 | 1013.8 |
| 20260507073020 | 69 | 121 | 7.8 | 13.9 | 0.00 | 0.00 | 0.00 | 41 | 1013.8 |
| 20260507072020 | 68 | 119 | 7.0 | 13.9 | 0.00 | 0.00 | 0.00 | 45 | 1013.8 |
| 20260507071019 | 67 | 115 | 6.1 | 13.9 | 0.00 | 0.00 | 0.00 | 47 | 1013.7 |
| 20260507070019 | 67 | 118 | 7.0 | 12.2 | 0.00 | 0.00 | 0.00 | 49 | 1013.7 |
| 20260507065019 | 66 | 115 | 5.2 | 13.0 | 0.00 | 0.00 | 0.00 | 49 | 1013.8 |
| 20260507064020 | 65 | 109 | 7.0 | 12.2 | 0.00 | 0.00 | 0.00 | 50 | 1013.8 |
| 20260507063019 | 64 | 118 | 7.8 | 13.0 | 0.00 | 0.00 | 0.00 | 49 | 1013.8 |
| 20260507062021 | 64 | 118 | 5.2 | 11.3 | 0.00 | 0.00 | 0.00 | 50 | 1013.8 |
| 20260507061020 | 63 | 120 | 6.1 | 14.8 | 0.00 | 0.00 | 0.00 | 51 | 1013.9 |
| 20260507060059 | 62 | 117 | 7.8 | 15.6 | 0.00 | 0.00 | 0.00 | 52 | 1013.9 |
| 20260507055019 | 62 | 114 | 6.1 | 12.2 | 0.00 | 0.00 | 0.00 | 54 | 1013.8 |
| 20260507054019 | 61 | 118 | 5.2 | 11.3 | 0.00 | 0.00 | 0.00 | 56 | 1013.8 |
| 20260507053040 | 60 | 113 | 5.2 | 8.7 | 0.00 | 0.00 | 0.00 | 58 | 1013.9 |
| 20260507052100 | 59 | 104 | 5.2 | 9.6 | 0.00 | 0.00 | 0.00 | 58 | 1013.7 |
| 20260507051020 | 59 | 106 | 5.2 | 8.7 | 0.00 | 0.00 | 0.00 | 58 | 1013.7 |
| 20260507050022 | 58 | 118 | 5.2 | 9.6 | 0.00 | 0.00 | 0.00 | 58 | 1013.5 |
| 20260507045040 | 58 | 112 | 4.3 | 8.7 | 0.00 | 0.00 | 0.00 | 60 | 1013.6 |
| 20260507044039 | 57 | 92 | 4.3 | 7.8 | 0.00 | 0.00 | 0.00 | 61 | 1013.4 |
| 20260507043023 | 56 | 109 | 5.2 | 9.6 | 0.00 | 0.00 | 0.00 | 61 | 1013.3 |
| 20260507042040 | 56 | 105 | 6.1 | 9.6 | 0.00 | 0.00 | 0.00 | 61 | 1013.2 |
| 20260507041023 | 55 | 105 | 5.2 | 8.7 | 0.00 | 0.00 | 0.00 | 62 | 1013.2 |
| 20260507040018 | 54 | 78 | 5.2 | 8.7 | 0.00 | 0.00 | 0.00 | 63 | 1013.1 |
| 20260507035020 | 54 | 106 | 6.1 | 9.6 | 0.00 | 0.00 | 0.00 | 63 | 1013.0 |
| 20260507034021 | 54 | 99 | 6.1 | 8.7 | 0.00 | 0.00 | 0.00 | 62 | 1013.1 |
| 20260507033023 | 54 | 104 | 5.2 | 10.4 | 0.00 | 0.00 | 0.00 | 62 | 1013.1 |
| 20260507032021 | 55 | 105 | 6.1 | 8.7 | 0.00 | 0.00 | 0.00 | 58 | 1013.1 |
| 20260507031019 | 55 | 105 | 5.2 | 7.8 | 0.00 | 0.00 | 0.00 | 56 | 1013.0 |
| 20260507030022 | 55 | 85 | 4.3 | 8.7 | 0.00 | 0.00 | 0.00 | 55 | 1013.0 |
| 20260507025048 | 56 | 108 | 4.3 | 6.1 | 0.00 | 0.00 | 0.00 | 54 | 1012.9 |
| 20260507024021 | 56 | 128 | 4.3 | 7.8 | 0.00 | 0.00 | 0.00 | 53 | 1012.9 |
| 20260507023040 | 57 | 134 | 3.5 | 8.7 | 0.00 | 0.00 | 0.00 | 52 | 1012.9 |
| 20260507022020 | 57 | 133 | 5.2 | 8.7 | 0.00 | 0.00 | 0.00 | 51 | 1012.9 |
| 20260507021019 | 57 | 126 | 3.5 | 7.8 | 0.00 | 0.00 | 0.00 | 52 | 1012.9 |
| 20260507020039 | 57 | 87 | 3.5 | 6.1 | 0.00 | 0.00 | 0.00 | 52 | 1012.9 |
| 20260507015020 | 58 | 128 | 4.3 | 7.8 | 0.00 | 0.00 | 0.00 | 51 | 1012.7 |
| 20260507014039 | 58 | 144 | 4.3 | 7.0 | 0.00 | 0.00 | 0.00 | 51 | 1012.7 |
| 20260507013021 | 58 | 160 | 5.2 | 8.7 | 0.00 | 0.00 | 0.00 | 51 | 1012.7 |
| 20260507012025 | 58 | 146 | 5.2 | 10.4 | 0.00 | 0.00 | 0.00 | 51 | 1012.7 |
| 20260507011020 | 58 | 141 | 5.2 | 10.4 | 0.00 | 0.00 | 0.00 | 51 | 1012.7 |
| 20260507010019 | 58 | 127 | 5.2 | 9.6 | 0.00 | 0.00 | 0.00 | 51 | 1012.8 |
| 20260507005039 | 58 | 129 | 4.3 | 7.8 | 0.00 | 0.00 | 0.00 | 51 | 1012.8 |
| 20260507004020 | 59 | 135 | 4.3 | 11.3 | 0.00 | 0.00 | 0.00 | 50 | 1012.7 |
| 20260507003020 | 59 | 133 | 4.3 | 7.8 | 0.00 | 0.00 | 0.00 | 49 | 1012.7 |
| 20260507002019 | 59 | 150 | 6.1 | 10.4 | 0.00 | 0.00 | 0.00 | 49 | 1012.7 |
| 20260507001040 | 59 | 149 | 6.1 | 11.3 | 0.00 | 0.00 | 0.00 | 48 | 1012.7 |
| 20260507000019 | 60 | 145 | 7.0 | 13.0 | 0.00 | 0.00 | 0.00 | 48 | 1012.7 |
| 20260506235019 | 60 | 138 | 6.1 | 12.2 | 0.00 | 0.00 | 0.00 | 48 | 1012.7 |
| 20260506234019 | 60 | 142 | 6.1 | 11.3 | 0.00 | 0.00 | 0.00 | 48 | 1012.7 |
| 20260506233020 | 60 | 149 | 7.0 | 13.0 | 0.00 | 0.00 | 0.00 | 48 | 1012.6 |
| 20260506232019 | 60 | 143 | 7.0 | 13.0 | 0.00 | 0.00 | 0.00 | 49 | 1012.7 |
| 20260506231019 | 61 | 144 | 7.8 | 13.0 | 0.00 | 0.00 | 0.00 | 49 | 1012.7 |
| 20260506230040 | 61 | 143 | 7.0 | 14.8 | 0.00 | 0.00 | 0.00 | 50 | 1012.6 |
| 20260506225020 | 61 | 140 | 7.8 | 15.6 | 0.00 | 0.00 | 0.00 | 51 | 1012.6 |
| 20260506224019 | 61 | 150 | 7.8 | 14.8 | 0.00 | 0.00 | 0.00 | 52 | 1012.7 |
| 20260506223019 | 61 | 153 | 7.0 | 13.9 | 0.00 | 0.00 | 0.00 | 53 | 1012.7 |
| 20260506222020 | 61 | 156 | 7.8 | 15.6 | 0.00 | 0.00 | 0.00 | 54 | 1012.7 |
| 20260506221020 | 62 | 144 | 7.8 | 15.6 | 0.00 | 0.00 | 0.00 | 54 | 1012.6 |
| 20260506220021 | 62 | 147 | 8.7 | 14.8 | 0.00 | 0.00 | 0.00 | 54 | 1012.6 |
| 20260506215019 | 62 | 150 | 7.8 | 14.8 | 0.00 | 0.00 | 0.00 | 53 | 1012.5 |
| 20260506214020 | 62 | 146 | 8.7 | 14.8 | 0.00 | 0.00 | 0.00 | 53 | 1012.6 |
| 20260506212020 | 63 | 147 | 9.6 | 16.5 | 0.00 | 0.00 | 0.00 | 52 | 1012.4 |
| 20260506211019 | 63 | 149 | 8.7 | 17.4 | 0.00 | 0.00 | 0.00 | 51 | 1012.4 |
| 20260506210020 | 64 | 140 | 10.4 | 17.4 | 0.00 | 0.00 | 0.00 | 51 | 1012.3 |
| 20260506205017 | 64 | 146 | 7.0 | 13.9 | 0.00 | 0.00 | 0.00 | 51 | 1012.3 |
| 20260506204037 | 64 | 134 | 6.1 | 15.6 | 0.00 | 0.00 | 0.00 | 50 | 1012.4 |
| 20260506203016 | 65 | 141 | 7.0 | 14.8 | 0.00 | 0.00 | 0.00 | 49 | 1012.3 |
| 20260506202016 | 65 | 126 | 7.8 | 14.8 | 0.00 | 0.00 | 0.00 | 48 | 1012.2 |
| 20260506201016 | 65 | 129 | 7.8 | 13.9 | 0.00 | 0.00 | 0.00 | 48 | 1012.3 |
| 20260506200016 | 66 | 150 | 6.1 | 12.2 | 0.00 | 0.00 | 0.00 | 48 | 1012.1 |
| 20260506195019 | 66 | 140 | 8.7 | 16.5 | 0.00 | 0.00 | 0.00 | 47 | 1012.0 |
| 20260506194016 | 66 | 128 | 7.0 | 13.9 | 0.00 | 0.00 | 0.00 | 47 | 1011.9 |
| 20260506193018 | 67 | 126 | 7.0 | 12.2 | 0.00 | 0.00 | 0.00 | 47 | 1011.9 |
| 20260506192037 | 67 | 133 | 6.1 | 12.2 | 0.00 | 0.00 | 0.00 | 46 | 1011.9 |
| 20260506191019 | 67 | 132 | 6.1 | 12.2 | 0.00 | 0.00 | 0.00 | 45 | 1011.8 |
| 20260506190017 | 68 | 149 | 7.0 | 16.5 | 0.00 | 0.00 | 0.00 | 45 | 1011.8 |
| 20260506185036 | 68 | 139 | 6.1 | 11.3 | 0.00 | 0.00 | 0.00 | 45 | 1011.5 |
| 20260506184017 | 68 | 144 | 6.1 | 13.9 | 0.00 | 0.00 | 0.00 | 44 | 1011.4 |
| 20260506183036 | 69 | 137 | 7.0 | 11.3 | 0.00 | 0.00 | 0.00 | 44 | 1011.3 |
| 20260506182015 | 69 | 142 | 7.0 | 14.8 | 0.00 | 0.00 | 0.00 | 44 | 1011.2 |
| 20260506181016 | 69 | 150 | 5.2 | 11.3 | 0.00 | 0.00 | 0.00 | 43 | 1011.1 |
| 20260506180017 | 69 | 156 | 6.1 | 11.3 | 0.00 | 0.00 | 0.00 | 43 | 1010.9 |
| 20260506175015 | 70 | 143 | 5.2 | 9.6 | 0.00 | 0.00 | 0.00 | 42 | 1010.9 |
| 20260506173016 | 71 | 139 | 4.3 | 7.8 | 0.00 | 0.00 | 0.00 | 40 | 1010.8 |
| 20260506172019 | 72 | 150 | 5.2 | 10.4 | 0.00 | 0.00 | 0.00 | 39 | 1010.7 |
| 20260506171019 | 73 | 153 | 5.2 | 11.3 | 0.00 | 0.00 | 0.00 | 38 | 1010.6 |
| 20260506170018 | 74 | 153 | 4.3 | 9.6 | 0.00 | 0.00 | 0.00 | 37 | 1010.6 |
| 20260506165036 | 75 | 158 | 6.1 | 13.9 | 0.00 | 0.00 | 0.00 | 36 | 1010.5 |
| 20260506164016 | 75 | 159 | 7.0 | 13.0 | 0.00 | 0.00 | 0.00 | 35 | 1010.5 |
| 20260506163019 | 76 | 160 | 6.1 | 14.8 | 0.00 | 0.00 | 0.00 | 35 | 1010.6 |
| 20260506162018 | 77 | 160 | 6.1 | 13.0 | 0.00 | 0.00 | 0.00 | 34 | 1010.4 |
| 20260506161020 | 77 | 157 | 5.2 | 9.6 | 0.00 | 0.00 | 0.00 | 34 | 1010.3 |
| 20260506160020 | 78 | 138 | 4.3 | 12.2 | 0.00 | 0.00 | 0.00 | 33 | 1010.4 |
| 20260506155019 | 78 | 143 | 4.3 | 9.6 | 0.00 | 0.00 | 0.00 | 33 | 1010.4 |
| 20260506154019 | 79 | 135 | 6.1 | 11.3 | 0.00 | 0.00 | 0.00 | 32 | 1010.4 |
| 20260506153020 | 79 | 143 | 6.1 | 12.2 | 0.00 | 0.00 | 0.00 | 31 | 1010.4 |
| 20260506152022 | 80 | 129 | 4.3 | 9.6 | 0.00 | 0.00 | 0.00 | 32 | 1010.4 |
| 20260506151020 | 80 | 168 | 5.2 | 13.0 | 0.00 | 0.00 | 0.00 | 32 | 1010.4 |
| 20260506150019 | 80 | 170 | 7.0 | 12.2 | 0.00 | 0.00 | 0.00 | 31 | 1010.4 |
| 20260506145018 | 80 | 161 | 5.2 | 11.3 | 0.00 | 0.00 | 0.00 | 31 | 1010.4 |
| 20260506144041 | 80 | 175 | 6.1 | 11.3 | 0.00 | 0.00 | 0.00 | 31 | 1010.5 |
| 20260506143019 | 80 | 171 | 7.0 | 13.9 | 0.00 | 0.00 | 0.00 | 31 | 1010.5 |
| 20260506142019 | 80 | 158 | 6.1 | 13.9 | 0.00 | 0.00 | 0.00 | 31 | 1010.6 |
| 20260506141039 | 81 | 177 | 7.0 | 13.0 | 0.00 | 0.00 | 0.00 | 31 | 1010.6 |
| 20260506140040 | 81 | 169 | 6.1 | 13.0 | 0.00 | 0.00 | 0.00 | 31 | 1010.5 |
| 20260506135039 | 81 | 176 | 7.0 | 13.9 | 0.00 | 0.00 | 0.00 | 31 | 1010.5 |
| 20260506134022 | 81 | 161 | 5.2 | 11.3 | 0.00 | 0.00 | 0.00 | 30 | 1010.6 |
| 20260506133018 | 81 | 161 | 6.1 | 10.4 | 0.00 | 0.00 | 0.00 | 31 | 1010.6 |
| 20260506132019 | 81 | 168 | 6.1 | 10.4 | 0.00 | 0.00 | 0.00 | 30 | 1010.6 |
| 20260506131019 | 81 | 183 | 6.1 | 12.2 | 0.00 | 0.00 | 0.00 | 30 | 1010.8 |
| 20260506130020 | 81 | 171 | 6.1 | 11.3 | 0.00 | 0.00 | 0.00 | 30 | 1010.7 |
| 20260506125040 | 81 | 159 | 5.2 | 11.3 | 0.00 | 0.00 | 0.00 | 30 | 1010.8 |
| 20260506124022 | 81 | 153 | 6.1 | 11.3 | 0.00 | 0.00 | 0.00 | 29 | 1010.9 |
| 20260506123102 | 80 | 172 | 6.1 | 10.4 | 0.00 | 0.00 | 0.00 | 30 | 1010.9 |
| 20260506122039 | 80 | 147 | 6.1 | 13.0 | 0.00 | 0.00 | 0.00 | 29 | 1011.1 |
| 20260506121020 | 0 | 0.0 | 0.0 | 0.00 | 0.00 | 0.00 | |||
| 20260506120020 | 0 | 0.0 | 0.0 | 0.00 | 0.00 | 0.00 | |||
| 20260506115021 | 0 | 0.0 | 0.0 | 0.00 | 0.00 | 0.00 | |||
| 20260506114020 | 80 | 152 | 7.0 | 11.3 | 0.00 | 0.00 | 0.00 | 27 | 1011.5 |
| 20260506113020 | 80 | 150 | 6.1 | 13.0 | 0.00 | 0.00 | 0.00 | 27 | 1011.5 |
| 20260506112021 | 80 | 149 | 5.2 | 13.0 | 0.00 | 0.00 | 0.00 | 28 | 1011.6 |
| 20260506111019 | 80 | 151 | 5.2 | 11.3 | 0.00 | 0.00 | 0.00 | 30 | 1011.6 |
| 20260506110019 | 80 | 141 | 6.1 | 13.0 | 0.00 | 0.00 | 0.00 | 32 | 1011.7 |
| 20260506105022 | 79 | 148 | 4.3 | 11.3 | 0.00 | 0.00 | 0.00 | 32 | 1011.6 |
| 20260506104023 | 79 | 142 | 6.1 | 11.3 | 0.00 | 0.00 | 0.00 | 32 | 1011.8 |
| 20260506103020 | 79 | 134 | 6.1 | 11.3 | 0.00 | 0.00 | 0.00 | 32 | 1011.8 |
| 20260506102019 | 79 | 177 | 6.1 | 12.2 | 0.00 | 0.00 | 0.00 | 33 | 1011.9 |